Location: *
(49.2333°S, 177.3500°W)
Time: 16:30:13
(UTC+00:00)

Daily predictions for brighter satellites

Satellite Brightness Start Highest point End
(mag) Time Altitude Azimuth Time Altitude Azimuth Time Altitude Azimuth
ATLAS 3B R/B 3.7 15:16:46 45° E 15:16:46 45° E 15:22:20 10° ENE
Cosmos 2344 4.4 15:24:14 60° SSW 15:27:11 84° SE 15:37:12 10° NE
Cosmos 2333 Rocket 3.9 15:42:11 26° SE 15:42:11 26° SE 15:44:36 10° SSE
CENTAUR R/B 4.2 15:42:42 24° SSE 15:42:42 24° SSE 15:47:08 10° ESE
Cosmos 2219 Rocket 4.0 15:47:55 23° SSE 15:47:55 23° SSE 15:49:59 10° SSE
CZ-2C R/B 4.0 15:52:11 10° NE 15:56:41 33° ESE 15:57:46 30° SE
NOSS 3-2 (A) 4.3 15:57:31 43° SSE 15:58:08 44° SSE 16:04:06 10° ENE
Cosmos 2237 Rocket 3.1 16:06:39 42° SSE 16:06:39 42° SSE 16:10:21 10° SSE
Cosmos 1937 Rocket 4.5 16:07:06 44° ENE 16:07:06 44° ENE 16:10:52 10° NE
ATLAS 2AS CENTAUR R/B 3.0 16:05:40 48° NNE 16:06:30 51° ENE 16:12:20 10° SE
SL-16 R/B 3.3 16:04:58 33° NNE 16:06:45 42° ENE 16:12:05 10° SE
IDEFIX/ARIANE 42P 3.4 16:03:34 10° NE 16:08:35 47° ESE 16:09:24 43° SE
NOSS 3-1 (A) 4.1 16:09:45 56° SSW 16:09:45 56° SSW 16:16:04 10° SE
Cosmos 1655 Rocket 4.3 16:14:20 61° NNE 16:14:20 61° NNE 16:19:29 10° N
Gbstr 26 Del rocket 4.5 16:17:12 37° ESE 16:17:12 37° ESE 16:19:49 10° E
Ariane Rocket 3.5 16:11:18 10° NNE 16:16:01 57° E 16:16:01 57° E
Lacrosse 5 rocket 3.4 16:22:31 24° ESE 16:22:31 24° ESE 16:24:15 10° ESE
Okean 2 Rocket 4.2 16:22:30 41° ESE 16:22:54 43° ESE 16:27:15 10° NE
MSX 4.5 16:27:59 10° NE 16:33:39 55° ESE 16:39:21 10° S
Cosmos 1782 4.4 16:37:56 10° NNE 16:41:42 36° E 16:45:30 10° SSE
Cosmos 1943 Rocket 4.0 16:39:10 14° S 16:42:46 26° SE 16:47:24 10° E
Meteor 2-10 Rocket 3.7 16:44:55 62° SSW 16:44:55 62° SSW 16:49:58 10° S
Cosmos 2369 Rocket 3.3 16:42:54 21° S 16:46:16 41° SE 16:51:36 10° ENE
Cosmos 2360 Rocket 4.3 16:48:49 13° S 16:48:49 13° S 16:50:04 10° S
IRS-1A Rocket 4.5 16:43:17 10° NNE 16:48:54 70° ESE 16:53:50 14° S
CZ-4 R/B 2.0 16:47:09 10° NNE 16:51:09 54° ESE 16:52:12 41° SSE
Cosmos 371 Rocket 4.0 16:46:27 10° N 16:51:12 55° ENE 16:56:01 10° SSE
COSMOS 2428 4.4 16:53:49 20° SSW 16:53:49 20° SSW 16:56:22 10° SSE
USA 238 DEB 3.7 16:51:02 50° WSW 16:52:52 68° NW 16:59:50 10° NNE
USA 238 3.7 16:51:06 50° WSW 16:52:59 69° NW 16:59:57 10° NNE
Cosmos 1703 Rocket 4.2 16:56:04 46° S 16:56:04 46° S 16:59:21 10° S
Cosmos 468 Rocket 3.8 16:54:28 54° NNW 16:55:41 83° WSW 17:00:58 10° SSE
Cosmos 2150 Rocket 4.4 16:57:24 47° NW 16:57:24 47° NW 17:01:33 10° N
ATLAS CENTAUR R/B 3.7 16:59:15 16° S 16:59:15 16° S 17:01:13 10° SSE
NOSS 0 Rocket 4.3 16:59:59 43° SW 16:59:59 43° SW 17:05:53 10° SSE
SJ-12 3.9 16:56:15 10° NNE 17:00:12 78° NNW 17:00:12 78° NNW
COSMOS 2455 4.0 16:57:33 19° SSW 17:01:20 38° SE 17:06:57 10° ENE
Cosmos 2151 Rocket 4.2 17:00:42 13° S 17:04:38 55° ESE 17:08:59 10° NNE
Cosmos 44 Rocket 3.5 17:04:42 53° WNW 17:04:42 53° WNW 17:09:42 10° NNE
SL-16 R/B 4.2 17:00:31 10° S 17:02:36 18° SSW 17:02:36 18° SSW
ATLAS 3B R/B 3.1 17:04:04 42° W 17:05:45 48° WNW 17:12:55 10° N
Cosmos 990 Rocket 4.1 17:06:30 53° WNW 17:06:30 53° WNW 17:11:34 10° N
AQUARIUS 4.2 17:04:15 10° NNE 17:08:48 83° ESE 17:11:41 23° SSW
CSL-04 Debris 4.1 17:03:50 10° N 17:09:14 64° WNW 17:11:58 30° SSW
Meteor 1-26 Rocket 4.2 17:07:04 28° NW 17:09:52 56° WSW 17:15:26 10° S
Cosmos 44 3.6 17:10:15 51° W 17:11:10 59° WNW 17:16:24 10° NNE
Cosmos 1763 Rocket 3.4 17:10:39 10° NNW 17:15:45 84° ENE 17:20:56 10° SSE
BREEZE-M DEB (TANK) 3.6 17:15:12 36° NW 17:16:36 60° NNE 17:22:22 10° ESE
Cosmos 2266 Rocket 3.8 17:10:48 10° SSW 17:16:54 71° W 17:22:58 10° N
CZ-2C R/B 3.6 17:13:47 10° SSE 17:18:20 87° E 17:22:53 10° NNW
BREEZE-M DEB (TANK) 2.5 17:17:59 68° W 17:18:22 86° S 17:20:49 10° E
Cosmos 1814 Rocket 3.9 17:15:38 10° NNW 17:20:57 71° WSW 17:26:16 10° SSE
Meteor 1-25 Rocket 4.4 17:18:06 23° SSW 17:21:35 51° W 17:27:08 10° NNW
MOS 1 4.4 17:16:42 10° NNE 17:22:26 79° ESE 17:28:13 10° SSW
Cosmos 2333 Rocket 3.3 17:24:12 25° SW 17:24:12 25° SW 17:28:30 10° SSE
Cosmos 1241 Rocket 4.4 17:20:16 10° NW 17:26:28 87° NE 17:32:45 10° SE
Cosmos 332 Rocket 3.8 17:23:02 17° NW 17:26:50 62° WSW 17:31:49 10° SSE
Cosmos 1125 Rocket 3.5 17:23:43 18° SSW 17:27:43 86° ESE 17:33:01 10° NNE
Cosmos 2219 Rocket 3.6 17:29:39 21° SSW 17:29:39 21° SSW 17:33:21 10° S
Cosmos 1603 4.1 17:24:02 10° NNW 17:29:36 67° ENE 17:35:14 10° SSE
NOSS 3-2 (C) 3.5 17:26:13 24° SW 17:30:28 87° NW 17:36:36 10° NE
Nadezhda 2 Rocket 4.5 17:24:52 10° S 17:31:14 87° W 17:37:36 10° N
Cosmos 2285 Rocket 4.1 17:25:31 10° NNW 17:31:57 81° ENE 17:38:28 10° SSE
EO 1 Del DPAF 3.2 17:28:05 10° S 17:32:01 66° WSW 17:35:54 10° NNW
Okean 1 Rocket 4.3 17:27:56 10° S 17:32:10 42° ESE 17:36:22 10° NE
CENTAUR R/B 3.1 17:29:53 18° SSW 17:34:27 46° SE 17:40:01 10° ENE
CZ-2C R/B 2.9 17:30:08 10° NNW 17:34:50 40° W 17:37:09 26° SW
CSL-04 Rocket 4.2 17:30:14 10° NNW 17:35:10 36° W 17:37:08 28° WSW
Cosmos 1484 Rocket 2.6 17:31:36 10° N 17:35:22 79° WNW 17:38:05 19° SSW
CORIOLIS 4.1 17:32:07 10° N 17:37:34 67° WNW 17:43:05 10° SSW
Okean 1-7 3.3 17:34:10 10° NNW 17:38:20 43° WSW 17:42:37 10° S
Cosmos 1633 2.5 17:37:30 32° SSW 17:38:58 60° W 17:42:35 10° N
Cosmos 1346 Rocket 2.6 17:38:13 10° NNW 17:42:08 69° WSW 17:46:07 10° S
YAOGAN 1 2.6 17:38:33 10° N 17:42:54 63° WNW 17:46:59 12° SSW
Meteor 1-27 Rocket 4.1 17:38:24 10° N 17:44:20 72° E 17:50:18 10° SSE
Cosmos 2263 4.4 17:39:17 13° SSW 17:44:30 74° ESE 17:50:11 10° NE
EXPRESS MD2 4.0 17:42:37 32° W 17:44:38 82° S 17:52:36 10° E
SMAP 3.3 17:40:20 10° N 17:44:51 46° W 17:48:33 15° SSW
IDEFIX/ARIANE 42P 3.4 17:43:52 10° NNW 17:48:23 29° W 17:50:11 23° WSW
NOSS 3-2 (A) 3.6 17:44:57 22° SW 17:49:14 56° WNW 17:55:08 10° NNE
Cosmos 2237 Rocket 3.3 17:48:30 23° SW 17:49:24 23° SW 17:53:57 10° S
Meteor 1-28 Rocket 3.8 17:45:44 10° SSE 17:49:35 60° E 17:53:20 10° N
USA 116 4.3 17:44:22 10° S 17:49:44 73° WSW 17:54:40 10° NNW
SPOT 3 Rocket 3.5 17:45:22 10° N 17:50:36 71° WNW 17:55:55 10° SSW
SL-16 R/B 2.6 17:46:58 17° WNW 17:50:54 40° SW 17:56:18 10° SSE
Cosmos 724 4.3 17:49:55 18° SW 17:54:23 69° WNW 18:00:26 10° NNE
Ariane Rocket 4.1 17:51:41 10° NW 17:55:40 22° W 17:56:13 22° W
Cosmos 2221 Rocket 4.4 17:53:13 10° NW 17:57:06 28° WSW 18:01:00 10° S
ATLAS 2AS CENTAUR R/B 2.8 17:53:10 18° W 17:57:26 44° SW 18:03:13 10° SE
BREEZE-M TANK 3.6 17:57:46 19° WNW 17:59:36 36° N 18:05:18 10° NE
ALOS 3.4 17:55:08 10° NE 17:59:37 44° ESE 18:04:09 10° S
Lacrosse 5 rocket 1.7 17:58:15 26° WSW 17:59:49 39° SSW 18:03:24 10° SE
Cosmos 540 Rocket 3.6 17:55:17 10° NNW 18:00:26 79° ENE 18:05:39 10° SSE
Okean 2 Rocket 4.2 17:59:56 22° WSW 18:00:44 23° W 18:04:20 10° NW
Cosmos 1606 3.2 17:57:13 10° NW 18:00:54 37° WSW 18:04:35 10° S
Gbstr 26 Del rocket 3.2 17:59:46 23° WSW 18:02:27 58° NNW 18:06:22 10° NE
SKYMED 2 3.7 18:02:40 10° SSE 18:07:08 83° ENE 18:11:32 10° NNW
Cosmos 1340 3.8 18:04:49 10° N 18:08:30 47° E 18:12:14 10° SSE
Meteor 1-5 Rocket 4.1 18:03:16 10° SSW 18:08:42 86° ESE 18:14:05 10° NNE
FREGAT/IRIS 3.4 18:12:33 10° NNE 18:15:35 54° ESE 18:18:39 10° S
Cosmos 1943 3.5 18:10:48 10° NNW 18:16:30 77° ENE 18:22:17 10° SSE
Cosmos 1782 4.0 18:14:50 10° WNW 18:18:10 23° WSW 18:21:33 10° SSW
NOAA 12 4.1 18:14:30 10° NNE 18:19:52 85° WNW 18:25:17 10° SSW
USA 234 3.3 18:14:40 10° ESE 18:21:20 88° SSW 18:28:00 10° WNW
Cosmos 1536 3.1 18:20:32 10° SSW 18:24:36 52° W 18:28:37 10° N
Cosmos 1553 Rocket 4.1 18:19:39 10° N 18:26:07 87° W 18:32:41 10° S
CZ-4 R/B 3.0 18:23:54 10° NW 18:26:32 16° W 18:28:15 13° WSW
Cosmos 1943 Rocket 2.2 18:21:28 10° SSW 18:27:06 74° WNW 18:32:43 10° NNE
Cosmos 1975 4.4 18:24:55 10° S 18:28:47 37° ESE 18:32:34 10° NE
Cosmos 841 Rocket 4.1 18:24:10 10° WNW 18:28:56 35° SW 18:33:44 10° S
Cosmos 2369 Rocket 2.7 18:25:01 10° SW 18:30:19 41° WNW 18:35:33 10° N
Cosmos 371 Rocket 4.3 18:27:56 10° WNW 18:31:58 25° SW 18:36:02 10° S
RESURS DK-1 3.1 18:29:03 10° NNW 18:33:11 59° ENE 18:37:21 10° SE
Cosmos 1674 Rocket 4.0 18:33:00 10° NNW 18:37:17 43° WSW 18:41:36 10° S
Cosmos 1980 Rocket 4.5 18:36:02 10° S 18:37:45 11° SSE 18:39:28 10° SE
Meteor 1-11 Rocket 4.4 18:32:53 10° SSW 18:38:02 34° W 18:43:04 10° NNW
ATLAS CENTAUR R/B 3.8 18:36:44 10° SSW 18:38:48 13° S 18:40:55 10° SSE
H-2A R/B 3.4 18:35:49 10° NNE 18:39:46 62° ESE 18:43:46 10° S
Cosmos 1455 Rocket 4.1 18:37:31 10° S 18:41:55 50° ESE 18:46:19 10° NNE
Meteor 2-11 Rocket 4.5 18:37:06 10° NNW 18:43:18 77° W 18:49:36 10° S
Cosmos 1263 4.3 18:40:39 10° SSW 18:43:46 73° W 18:47:22 10° N
COSMOS 2455 3.1 18:41:38 10° SW 18:47:31 55° WNW 18:53:23 10° NNE
Iridium 4 Rocket 4.0 18:44:44 10° S 18:49:47 59° E 18:54:19 10° NNE
HJ-1C 3.5 18:48:16 10° NNE 18:51:46 83° WNW 18:55:20 10° SSW
USA 186 3.3 18:49:48 10° NE 18:51:52 25° ESE 18:54:03 10° SSE
ISS -0.6 18:49:40 10° N 18:51:54 17° NE 18:54:09 10° E
COSMO-SKYMED 1 3.2 18:51:04 10° S 18:55:06 35° WSW 18:59:06 10° NW
